User: anonymous   Login
Location: Unspecified
(0.0000°N, 0.0000°E)
Time: 19:16:55
(UTC+00:00)
Language:

AO-27 - Orbit

View from above orbital plane
View from above orbital plane
View from above satellite
View from above satellite

Ground track
Ground track

The orbit is defined by the following mean orbital elements,

1 22825U          26145.41440539 +.00000000 +00000-0 +47324-4 0 00004
2 22825  98.6888 212.8351 0008799 160.1409 200.0117 14.30935115    07
Epoch (UTC): 25 May 2026 09:56:44
Eccentricity: 0.0008799
inclination: 98.6888°
perigee height: 782 km
apogee height: 795 km
right ascension of ascending node: 212.8351°
argument of perigee: 160.1409°
revolutions per day: 14.30935115
mean anomaly at epoch: 200.0117°

The dashed part of the orbit path shows where the satellite is in the earth's shadow,  

DLR